Location: Oroua River
(40.4333°S, 175.4333°E)
Time: 14:10:47
(UTC+00:00)

Lacrosse 4 Rocket - Pass Details

Date: 03 February 2023
Orbit: 536 x 607 km, 68.0° (Epoch: 30 March)

Event Time Altitude Azimuth Distance (km) Brightness Sun altitude
Exits shadow 13:26:05 23° 159° (SSE) 1,188 3.6 -31.7°
Drops below altitude 10° 13:27:44 10° 156° (SSE) 1,829 4.8 -31.6°
Sets 13:29:57 0° 154° (SSE) 2,734 6.0 -31.5°
